(455) Bruchsalia
ephemeris date magn radius delta ra dec elong phase
Today20 Oct 202514.62.910 AU3.861 AU14h39m-10°37'14.9°5.1°
Opposition13 Jul 202611.22.094 AU1.092 AU19h45m-34°59'166.4°6.6°
(455) Bruchsalia - 2025-10-20
astro.vanbuitenen.nl


 
-1 year
-1 month
-1 day
Now
+1 day
+1 month
+1 year

The interactive orbit chart above shows the body's path through the solar system and its position at the given date. Green and blue lines are shown perpendicular to the ecliptic plane: Green if the path is above the ecliptic plane, blue if it is below. (Left-click and drag to rotate the view; Right-click and drag to move the view; Use scroll wheel to zoom in our out.)

The orbital elements of Bruchsalia are:

            e (Eccentricity)                : 0.2944923
            a (Semimajor axis)              : 2.6556967
            i (Inclination)                 : 12.01780
            Ω (Longitude of ascending node) : 76.06858
            ω (Argument of perihelion)      : 273.39849
            M (Mean anomaly)                : 228.71050
            Epoch                           : 2025 May 05

            L (Longitude of perihelion)     : -10.45696
            B (Latitude of perihelion)      : -11.99635
            P (Orbital period in years)     : 4.33            
        

The light curve chart below shows the estimated development of the minor planet's magnitude.


The all-sky chart below shows the path of the minor planet over the same period as the light curve. The current position is marked yellow.





The following chart shows the path of the minor planet in the next few days. The field of view is optimized for (~10x50) binoculars and finderscopes.




Ephemerides:
Date       Time       RA (2000)    DEC (2000)    delta   radius  elong  phase   PA    magn
2025-10-20 00:00 UT   14 39 06.2   -10 37 32     3.861    2.910   14.9    5.1    90   14.6 
2025-10-20 10:54 UT   14 39 45.4   -10 41 28     3.861    2.909   14.7    5.0    90   14.6 
2025-10-21 00:00 UT   14 40 32.6   -10 46 11     3.862    2.907   14.4    4.9    89   14.6 
2025-10-22 00:00 UT   14 41 59.3   -10 54 50     3.862    2.905   13.8    4.7    89   14.6 
2025-10-23 00:00 UT   14 43 26.3   -11 03 26     3.862    2.902   13.2    4.5    88   14.6 
2025-10-24 00:00 UT   14 44 53.6   -11 12 01     3.862    2.899   12.6    4.3    87   14.5 
2025-10-25 00:00 UT   14 46 21.2   -11 20 34     3.862    2.897   12.0    4.1    86   14.5 
2025-10-26 00:00 UT   14 47 49.2   -11 29 06     3.862    2.894   11.5    3.9    85   14.5 
2025-10-27 00:00 UT   14 49 17.4   -11 37 35     3.861    2.891   10.9    3.7    83   14.5 
2025-10-28 00:00 UT   14 50 46.0   -11 46 02     3.861    2.888   10.3    3.5    82   14.5 
2025-10-29 00:00 UT   14 52 14.8   -11 54 28     3.860    2.886    9.8    3.3    80   14.5 
2025-10-30 00:00 UT   14 53 44.0   -12 02 51     3.859    2.883    9.2    3.2    79   14.5 
2025-10-31 00:00 UT   14 55 13.4   -12 11 13     3.858    2.880    8.7    3.0    77   14.5 
2025-11-01 00:00 UT   14 56 43.2   -12 19 32     3.857    2.878    8.1    2.8    75   14.4 
2025-11-02 00:00 UT   14 58 13.2   -12 27 50     3.855    2.875    7.6    2.6    72   14.4 
2025-11-03 00:00 UT   14 59 43.5   -12 36 05     3.854    2.872    7.1    2.4    70   14.4 
2025-11-04 00:00 UT   15 01 14.1   -12 44 18     3.852    2.869    6.6    2.3    67   14.4 
2025-11-05 00:00 UT   15 02 45.0   -12 52 29     3.851    2.866    6.1    2.1    63   14.4 
2025-11-06 00:00 UT   15 04 16.2   -13 00 37     3.849    2.864    5.7    2.0    59   14.4 
2025-11-07 00:00 UT   15 05 47.7   -13 08 44     3.846    2.861    5.3    1.8    54   14.4 
2025-11-08 00:00 UT   15 07 19.5   -13 16 48     3.844    2.858    4.9    1.7    49   14.3 
2025-11-09 00:00 UT   15 08 51.5   -13 24 49     3.842    2.855    4.6    1.6    42   14.3 
2025-11-10 00:00 UT   15 10 23.8   -13 32 49     3.839    2.853    4.3    1.5    35   14.3 


    Terminology:
            
    delta:  distance between minor planet and earth in AU
    radius: distance between minor planet and sun in AU
    magn:   magnitude (brightness) estimate    
    ra:     right ascension in hours (24h = 360deg)
    dec:    declination in degrees
    elong:  elongation in degrees (angle sun-earth-minor planet)    
    phase:  phase angle in degrees (angle sun-minor planet-earth)        
    AU:     Astronomical Unit (mean distance between earth and sun: 149597870.7 km
    

Orbital elements provided by the MPC (Minor Planet Center).
Calculations by a modified version of AAPlus, a C# implementation of the AA+ project by PJ Naughter from the algorithms presented in the book "Astronomical Algorithms" by Jean Meeus.
NGC2000 dso catalog and star labels from VizieR as provided by the Strasbourg astronomical Data Center.
Tycho2 catalog from the ESO archive.